SL-14 DEB, 45652

Orbit data source: Space-Track

SL-14 DEB, 45652 is space debris in LEO originally from a launch on Thu, 15 Aug 1991 UTC launched from the Plesetsk Missile And Space Complex (PKMTR). Debris objects in space refer to the collection of defunct objects orbiting the Earth. Examples of debris include non-operational satellites, rocket bodies, and fragments generated from explosions, collisions, or faulty payload assembly.

Loading next visibility...
Identifier
45652, 1991-056CW
Orbit
LEO
Country
Flag of CISCIS
Related business
Manufacturer
Unknown
Mission
Spacecraft
Bus & Motor
Unknown
Mass
Unknown
Launch date (UTC)
1991-08-15 (35 years ago)
Launch vehicle
Unknown
Launch site
Plesetsk Missile And Space Complex (PKMTR)
Object type
Payload
Rocket body
Debris
Shape & HBR
Unknown shape, 0.1 m
Radar Cross Section
Small (<0.1 m²)

Expand to show TLE details & history
Last TLE update: 3 days ago

TLE from 3 days ago
0 SL-14 DEB
1 45652U 91056CW  26124.04110395  .00000518  00000-0  11730-2 0  9999
2 45652  82.5522 151.9712 0033828 132.3113 228.0889 13.24488463293006
Epoch: 2026-05-04T00:59Z
TLE epoch observation values (Epoch: 2026-05-04T00:59:11.381Z)
Latitude
-0.00002°
Longitude
-84.76222°
Altitude
1,187.544 km
Speed
7.252 km/s
True Right ascension
10h 07m 53s
True Declination
0° 00' 00"
Sunlit
Object was in daylight at epoch
Visualization orbit readout
Latitude
Unknown
Longitude
Unknown
Altitude
Unknown
Speed
Unknown
Apparent Right ascension
Unknown
Apparent Declination
Unknown
Sunlit
N/A
Visualization observer readout
Local Sidereal Time
07:40:26
Azimuth
Unknown
Elevation
Unknown
Doppler factor
Unknown
Orbital elements
Apogee altitude
1,190.375 km
Perigee altitude
1,139.342 km
Semi-major axis
7,542.995 km
Eccentricity
0.00338
Inclination
82.5522°
RAAN
151.9712°
Arg. of periapsis
132.3113°
True anomaly
227.80124°
Mean anomaly
228.0889°
Eccentric anomaly
227.94499°
Mean motion
3.31305 °/min
Orbital period
108.66 mins
BSTAR
0.001173
Loading maneuver chart data...
Computing Atmospheric mass density...
Loading historical data...
Loading historical data...
Loading historical data...
Loading historical data...
Loading historical data...
Loading historical data...
Loading historical data...

Documentation

Showing up to 5 results
|